Weather History for Three Rivers, MI

Change the Weather History Date:

Saturday, May 3, 2014

  Actual Average Record
Temperature  
Mean Temperature 54 °F -  
Max Temperature 62 °F 64 °F 87 °F (1959)
Min Temperature 46 °F 41 °F 28 °F (1967)
Degree Days  
Heating Degree Days 11    
Growing Degree Days 4 (Base 50)    
Moisture  
Dew Point 40 °F    
Average Humidity 67    
Maximum Humidity 87    
Minimum Humidity 35    
Precipitation  
Precipitation 0.00 in - - ()
Sea Level Pressure  
Sea Level Pressure 29.75 in    
Wind  
Wind Speed 11 mph (WSW)    
Max Wind Speed 28 mph    
Max Gust Speed 38 mph    
Visibility 10 miles    
Events Rain    
Averages and records for this station are not official NWS values.
T = Trace of Precipitation, MM = Missing Value Source: NWS Daily Summary

Daily Weather History Graph

Daily Weather History Graph

Search for Another Location

Airport:

Trip Planner

Search our weather history database for the weather conditions in past years. The results will help you decide how hot, cold, wet, or windy it might be!

Date:

Astronomy

May. 03, 2014 Rise Set
Actual Time 6:35 AM EDT 8:43 PM EDT
Civil Twilight 6:05 AM EDT 9:14 PM EDT
Nautical Twilight 5:27 AM EDT 9:51 PM EDT
Astronomical Twilight 4:46 AM EDT 10:33 PM EDT
Moon 10:04 AM EDT (5/3) 12:04 AM EDT (5/3)
Length of Visible Light 15h 08m
Length of Day
14h 07m
Waxing Crescent, 19% of the Moon is Illuminated
May 3
Waxing Crescent
May 6
First Quarter
May 14
Full
May 21
Last Quarter
May 28
New

Hourly Weather History & Observations

Time (EDT) Temp. Windchill Dew Point Humidity Pressure Visibility Wind Dir Wind Speed Gust Speed Precip Events Conditions
12:15 AM 47.3 °F - 43.7 °F 87% 29.79 in 7.0 mi SSW 8.1 mph - N/A   Overcast
12:34 AM 47.3 °F - 43.7 °F 87% 29.78 in 10.0 mi SSW 6.9 mph - N/A   Overcast
12:55 AM 47.3 °F - 43.7 °F 87% 29.77 in 10.0 mi SSW 8.1 mph - N/A   Overcast
1:15 AM 46.8 °F - 43.2 °F 87% 29.77 in 10.0 mi SSW 8.1 mph - N/A   Mostly Cloudy
1:34 AM 46.4 °F 42.4 °F 42.8 °F 87% 29.76 in 10.0 mi SSW 8.1 mph - N/A   Scattered Clouds
1:55 AM 47.1 °F - 43.3 °F 87% 29.75 in 7.0 mi SSW 10.4 mph - N/A Rain Light Rain
2:15 AM 46.9 °F - 43.3 °F 87% 29.75 in 10.0 mi SSW 10.4 mph - N/A   Light Drizzle
2:35 AM 47.3 °F - 43.7 °F 87% 29.74 in 10.0 mi SSW 9.2 mph - N/A   Overcast
2:55 AM 47.3 °F - 43.3 °F 86% 29.73 in 10.0 mi SSW 6.9 mph - N/A   Overcast
3:14 AM 47.3 °F - 43.3 °F 86% 29.72 in 10.0 mi South 10.4 mph - N/A Rain Light Rain
3:35 AM 47.3 °F - 43.7 °F 87% 29.72 in 10.0 mi SSW 11.5 mph - N/A   Overcast
3:55 AM 47.3 °F - 43.3 °F 86% 29.70 in 5.0 mi South 11.5 mph - N/A Rain Light Rain
4:14 AM 47.3 °F - 43.7 °F 87% 29.69 in 7.0 mi South 12.7 mph - N/A Rain Light Rain
4:35 AM 47.3 °F - 43.3 °F 86% 29.68 in 10.0 mi South 12.7 mph - N/A   Overcast
4:55 AM 47.1 °F - 43.2 °F 86% 29.67 in 10.0 mi South 11.5 mph - N/A   Overcast
5:14 AM 47.3 °F - 43.0 °F 85% 29.67 in 10.0 mi South 10.4 mph - N/A   Mostly Cloudy
5:35 AM 47.3 °F - 42.8 °F 84% 29.67 in 10.0 mi South 11.5 mph - N/A   Mostly Cloudy
6:15 AM 46.9 °F - 41.9 °F 83% 29.66 in 10.0 mi SSW 11.5 mph - N/A   Mostly Cloudy
6:35 AM 46.4 °F 40.7 °F 41.4 °F 83% 29.66 in 10.0 mi SSW 12.7 mph - N/A   Scattered Clouds
6:54 AM 46.6 °F - 41.4 °F 82% 29.66 in 10.0 mi SSW 10.4 mph - N/A   Mostly Cloudy
7:15 AM 47.3 °F - 41.7 °F 81% 29.65 in 10.0 mi SW 12.7 mph - N/A   Overcast
7:35 AM 47.8 °F - 41.9 °F 80% 29.66 in 10.0 mi SW 9.2 mph - N/A   Overcast
7:55 AM 48.2 °F - 41.9 °F 79% 29.66 in 10.0 mi SW 9.2 mph - N/A   Overcast
8:15 AM 48.6 °F - 41.9 °F 78% 29.66 in 10.0 mi SW 6.9 mph - N/A   Overcast
8:34 AM 49.1 °F - 42.3 °F 77% 29.67 in 10.0 mi WSW 8.1 mph - N/A   Overcast
8:55 AM 49.6 °F - 42.8 °F 77% 29.67 in 10.0 mi WSW 8.1 mph - N/A   Overcast
9:15 AM 50.2 °F - 42.8 °F 76% 29.68 in 10.0 mi WSW 11.5 mph 18.4 mph N/A   Overcast
9:34 AM 50.0 °F - 42.8 °F 76% 29.69 in 10.0 mi West 11.5 mph 18.4 mph N/A   Overcast
9:55 AM 49.8 °F - 43.2 °F 78% 29.69 in 10.0 mi West 15.0 mph 21.9 mph N/A   Overcast
10:15 AM 49.3 °F - 43.2 °F 79% 29.70 in 10.0 mi West 12.7 mph 18.4 mph N/A   Overcast
10:34 AM 49.1 °F - 43.3 °F 81% 29.70 in 10.0 mi West 11.5 mph 20.7 mph N/A   Overcast
10:55 AM 49.1 °F - 43.7 °F 82% 29.71 in 10.0 mi West 15.0 mph 20.7 mph N/A   Overcast
11:15 AM 49.3 °F - 44.1 °F 82% 29.72 in 10.0 mi West 13.8 mph 18.4 mph N/A   Overcast
11:34 AM 49.6 °F - 43.9 °F 81% 29.72 in 10.0 mi West 16.1 mph - N/A   Overcast
11:55 AM 50.2 °F - 44.2 °F 80% 29.74 in 7.0 mi West 13.8 mph 20.7 mph N/A   Overcast
12:14 PM 51.8 °F - 44.6 °F 76% 29.75 in 10.0 mi West 12.7 mph 21.9 mph N/A   Overcast
12:35 PM 51.8 °F - 44.8 °F 77% 29.75 in 10.0 mi West 13.8 mph - N/A   Overcast
12:55 PM 55.2 °F - 45.7 °F 70% 29.74 in 10.0 mi West 15.0 mph - N/A   Mostly Cloudy
1:14 PM 55.9 °F - 44.2 °F 65% 29.74 in 10.0 mi West 12.7 mph 21.9 mph N/A   Scattered Clouds
1:35 PM 57.9 °F - 43.2 °F 58% 29.74 in 10.0 mi West 17.3 mph 29.9 mph N/A   Mostly Cloudy
1:54 PM 59.2 °F - 42.8 °F 55% 29.74 in 10.0 mi West 18.4 mph 25.3 mph N/A   Scattered Clouds
2:15 PM 59.0 °F - 40.3 °F 50% 29.75 in 10.0 mi WNW 20.7 mph 28.8 mph N/A   Scattered Clouds
2:35 PM 60.6 °F - 40.6 °F 48% 29.75 in 10.0 mi West 21.9 mph 32.2 mph N/A   Mostly Cloudy
2:54 PM 60.8 °F - 39.6 °F 46% 29.75 in 10.0 mi West 20.7 mph 27.6 mph N/A   Scattered Clouds
3:15 PM 59.9 °F - 38.3 °F 45% 29.76 in 10.0 mi WNW 18.4 mph 29.9 mph N/A   Scattered Clouds
3:35 PM 62.4 °F - 39.6 °F 43% 29.77 in 10.0 mi West 21.9 mph 31.1 mph N/A   Mostly Cloudy
4:15 PM 60.3 °F - 32.4 °F 35% 29.77 in 10.0 mi WNW 24.2 mph 38.0 mph N/A   Mostly Cloudy
4:35 PM 62.4 °F - 34.7 °F 36% 29.77 in 10.0 mi WNW 24.2 mph 31.1 mph N/A   Mostly Cloudy
4:54 PM 62.1 °F - 34.3 °F 35% 29.78 in 10.0 mi West 27.6 mph 35.7 mph N/A   Mostly Cloudy
5:15 PM 61.0 °F - 34.5 °F 37% 29.79 in 10.0 mi WNW 18.4 mph 29.9 mph N/A   Mostly Cloudy
5:34 PM 61.7 °F - 34.0 °F 35% 29.79 in 10.0 mi WNW 20.7 mph 32.2 mph N/A   Scattered Clouds
5:55 PM 61.3 °F - 33.8 °F 36% 29.79 in 10.0 mi NW 17.3 mph 27.6 mph N/A   Clear
6:15 PM 61.0 °F - 33.4 °F 36% 29.80 in 10.0 mi WNW 19.6 mph 31.1 mph N/A   Clear
6:34 PM 60.6 °F - 34.5 °F 38% 29.81 in 10.0 mi WNW 15.0 mph 27.6 mph N/A   Clear
6:55 PM 60.3 °F - 33.8 °F 37% 29.80 in 10.0 mi NW 13.8 mph 19.6 mph N/A   Clear
7:15 PM 59.2 °F - 33.4 °F 38% 29.81 in 10.0 mi WNW 13.8 mph 17.3 mph N/A   Clear
7:34 PM 58.3 °F - 34.2 °F 40% 29.82 in 10.0 mi WNW 8.1 mph - N/A   Clear
7:55 PM 57.6 °F - 34.9 °F 43% 29.82 in 10.0 mi WNW 6.9 mph - N/A   Clear
8:15 PM 56.3 °F - 36.3 °F 47% 29.82 in 10.0 mi WNW 4.6 mph - N/A   Scattered Clouds
8:34 PM 55.4 °F - 36.7 °F 49% 29.83 in 10.0 mi WNW 3.5 mph - N/A   Mostly Cloudy
8:55 PM 54.1 °F - 36.0 °F 50% 29.83 in 10.0 mi Calm Calm - N/A   Mostly Cloudy
9:15 PM 54.1 °F - 34.5 °F 48% 29.83 in 10.0 mi Calm Calm - N/A   Mostly Cloudy
9:34 PM 52.9 °F - 35.8 °F 52% 29.84 in 10.0 mi Calm Calm - N/A   Overcast
9:55 PM 53.8 °F - 33.8 °F 47% 29.84 in 10.0 mi Calm Calm - N/A   Overcast
10:14 PM 51.4 °F - 39.0 °F 63% 29.84 in 10.0 mi Calm Calm - N/A   Scattered Clouds
10:35 PM 50.7 °F - 40.6 °F 68% 29.85 in 10.0 mi Calm Calm - N/A   Mostly Cloudy
10:55 PM 50.0 °F - 38.8 °F 66% 29.85 in 10.0 mi Calm Calm - N/A   Overcast
11:14 PM 49.6 °F - 38.8 °F 66% 29.85 in 10.0 mi Calm Calm - N/A   Overcast
11:35 PM 50.2 °F - 38.8 °F 65% 29.85 in 10.0 mi Calm Calm - N/A   Overcast
11:55 PM 50.0 °F - 39.9 °F 68% 29.85 in 10.0 mi Calm Calm - N/A   Overcast